Tracking 18852 objects as of 24-Nov-2017
HD Live streaming from Space Station
objects crossing your sky now

LEMUR 2 FURIAUS

Track LEMUR 2 FURIAUS now!
10-day predictions
LEMUR 2 FURIAUS is classified as:


NORAD ID: 42840
Int'l Code: 2017-042R
Perigee: 591.4 km
Apogee: 610.2 km
Inclination: 97.6 °
Period: 96.6 minutes
Semi major axis: 6971 km
RCS: Unknown
Launch date: July 14, 2017
Source: United States (US)
Launch site: TYURATAM MISSILE AND SPACE COMPLEX (TTMTR)
aabbcc
Your satellite tracking list
Your tracking list is empty




NASA's NSSDC Master Catalog

Two Line Element Set (TLE):
1 42840U 17042R   17327.85855959  .00000849  00000-0  90348-4 0  9995
2 42840  97.6078 232.8770 0013494 154.3354 205.8537 14.91363862 19746
Source of the keplerian elements: AFSPC